DELTA 1 DEB, 21542

Orbit data source: Space-Track

DELTA 1 DEB, 21542 is space debris in SSO originally from a launch on Thu, 12 Jun 1975 UTC launched from the Air Force Western Test Range (AFWTR). Debris objects in space refer to the collection of defunct objects orbiting the Earth. Examples of debris include non-operational satellites, rocket bodies, and fragments generated from explosions, collisions, or faulty payload assembly.

Loading next visibility...
Identifier
21542, 1975-052GW
Orbit
SSO
Country
Flag of USUS
Related business
Manufacturer
Unknown
Mission
Spacecraft
Bus & Motor
Unknown
Mass
Unknown
Launch date (UTC)
1975-06-12 (51 years ago)
Launch vehicle
Unknown
Launch site
Air Force Western Test Range (AFWTR)
Object type
Payload
Rocket body
Debris
Shape & HBR
Unknown shape, 0.1 m
Radar Cross Section
Small (<0.1 m²)

Expand to show TLE details & history
Last TLE update: 15 hours ago

TLE from 15 hours ago
0 DELTA 1 DEB
1 21542U 75052GW  26126.95983315  .00000185  00000-0  43074-3 0  9998
2 21542 100.2848   7.8637 0050515 115.4461  15.1796 13.38535128707550
Epoch: 2026-05-06T23:02Z
TLE epoch observation values (Epoch: 2026-05-06T23:02:09.584Z)
Latitude
48.26195°
Longitude
-10.81491°
Altitude
1,085.642 km
Speed
7.332 km/s
True Right ascension
13h 18m 09s
True Declination
48° 05' 55"
Sunlit
Object was in daylight at epoch
Visualization orbit readout
Latitude
Unknown
Longitude
Unknown
Altitude
Unknown
Speed
Unknown
Apparent Right ascension
Unknown
Apparent Declination
Unknown
Sunlit
N/A
Visualization observer readout
Local Sidereal Time
22:14:01
Azimuth
Unknown
Elevation
Unknown
Doppler factor
Unknown
Orbital elements
Apogee altitude
1,149.925 km
Perigee altitude
1,074.251 km
Semi-major axis
7,490.225 km
Eccentricity
0.00505
Inclination
100.2848°
RAAN
7.8637°
Arg. of periapsis
115.4461°
True anomaly
15.3321°
Mean anomaly
15.1796°
Eccentric anomaly
15.25576°
Mean motion
3.34812 °/min
Orbital period
107.52 mins
BSTAR
0.00043074
Loading maneuver chart data...
Computing Atmospheric mass density...

Documentation

Showing up to 5 results
|